[[{"header":{"parameterUnit":"m.s-1","parameterCategory":2,"la1":30.2991,"la2":30.254,"lo1":-89.0895,"lo2":-89.0444,"dy":0.0017,"dx":0.0017,"nx":28,"ny":28,"refTime":"2023-08-15T03:00:00:Z","depth":"0","parameterNumber":2,"parameterNumberName":"U-component_of_CURRENTS"},"data":[0,0,0,0,0,0,0,0,0,0,0,0,0,0,0,0,0,0,0,0,0,0,0,0,0,0,0,0,0,0,0,0,0,0,0,0,0,0,0,0,0,0,0,0,0,0,0,0,0,0,0,0,0,0,0,0,0,0,0.2177,0.2179,0,0.2297,0.2297,0.2298,0.219,0.2186,0.2182,0.2179,0.2144,0.2146,0.2149,0,0,0,0,0,0,0,0,0,0,0,0,0,0.2003,0.2005,0.2177,0.2179,0.2182,0.2296,0.2297,0.2298,0.219,0.2186,0.2181,0.2177,0.2143,0.2146,0.2149,0,0,0,0,0,0,0,0,0,0,0,0,0,0.2088,0.2005,0.2177,0.2147,0.2146,0.2296,0.2297,0.2298,0.2191,0.2186,0.218,0.2175,0.2142,0.2145,0.2149,0.2284,0,0,0.2161,0.2162,0,0,0,0,0,0,0,0,0.2083,0.2094,0.2149,0.2149,0.2149,0.2229,0.2223,0.2289,0.2193,0.2166,0.2179,0.2172,0.2167,0.2168,0.2195,0.2283,0.2281,0.2161,0.2163,0.2165,0.2166,0,0,0,0,0,0,0,0.2077,0.2089,0.2217,0.2152,0.2152,0.2179,0.2182,0.2236,0.2188,0.2168,0.2162,0.2189,0.2164,0.2192,0.2193,0.2281,0.2161,0.2164,0.2167,0.2168,0.2423,0.2428,0,0,0,0,0,0,0.2077,0.2084,0.2213,0.2221,0.211,0.2186,0.219,0.2203,0.219,0.2187,0.2194,0.2184,0.2188,0.2189,0.2191,0.2275,0.2165,0.2169,0.2171,0.2419,0.2424,0.2429,0,0,0,0,0,0,0.2073,0.2087,0.2208,0.2161,0.2179,0.2195,0.221,0.2208,0.2218,0.2213,0.2203,0.2203,0.2183,0.2186,0.2195,0.2275,0.217,0.2174,0.2414,0.2421,0.2427,0.2491,0,0,0,0,0,0,0.2067,0.2084,0.2119,0.2161,0.2182,0.2306,0.2217,0.2215,0.2248,0.2235,0.222,0.2211,0.2179,0.2189,0.2198,0.2278,0.2177,0.2408,0.2417,0.2425,0.2484,0.25,0.2513,0,0,0,0,0,0.206,0.214,0.2119,0.2137,0.2219,0.2311,0.2325,0.2311,0.2254,0.2291,0.2235,0.2211,0.2251,0.2194,0.2205,0.2287,0.2404,0.2414,0.2424,0.2477,0.2496,0.2513,0,0,0,0,0,0,0.2138,0.2139,0.2115,0.2205,0.2252,0.2294,0.2346,0.233,0.2326,0.2293,0.2245,0.2236,0.2288,0.2292,0.2231,0.2394,0.2338,0.235,0.2375,0.2393,0.2408,0.2379,0.218,0,0,0,0,0,0.2162,0.2189,0.2216,0.2301,0.2308,0.2324,0.2365,0.2355,0.2357,0.2349,0.233,0.2328,0.2357,0.2363,0.2396,0.2477,0.2458,0.2551,0.2566,0.2578,0.2568,0.2621,0.2638,0.2462,0.2462,0.2462,0,0,0.2233,0.2235,0.2262,0.2315,0.2334,0.2369,0.2331,0.2399,0.2418,0.2353,0.2365,0.2381,0.2391,0.2461,0.2491,0.2458,0.2618,0.2591,0.26,0.2583,0.2633,0.265,0.2664,0.2469,0.2468,0.2467,0,0,0.235,0.2363,0.2389,0.2417,0.245,0.2451,0.2466,0.2495,0.2483,0.2513,0.2478,0.2515,0.2556,0.2579,0.2593,0.2725,0.2697,0.2776,0.282,0.2873,0.2886,0.2897,0.2874,0.2883,0.278,0.278,0.278,0,0.2424,0.2453,0.2435,0.246,0.2486,0.2473,0.251,0.2528,0.256,0.2557,0.2514,0.2591,0.2606,0.2686,0.2729,0.2755,0.2754,0.2736,0.2886,0.2897,0.2907,0.2881,0.289,0.2784,0.2784,0.2784,0.2783,0,0.2526,0.2555,0.2588,0.2566,0.26,0.2661,0.2646,0.2668,0.2635,0.2638,0.2694,0.2716,0.2743,0.2807,0.2794,0.292,0.2884,0.2893,0.2821,0.2927,0.2894,0.2902,0.2791,0.2789,0.2788,0.2787,0,0,0.2669,0.2646,0.2664,0.2636,0.2653,0.2682,0.2707,0.2723,0.27,0.2752,0.275,0.2852,0.2852,0.2873,0.2913,0.298,0.3056,0.2975,0.2976,0.2915,0.3125,0.2886,0.287,0.3096,0.3098,0.31,0.3062,0,0.2744,0.2774,0.2755,0.2795,0.2789,0.277,0.2772,0.2784,0.2767,0.2766,0.2819,0.2838,0.2882,0.2895,0.2979,0.3031,0.3084,0.3061,0.3063,0.3061,0.2806,0.2875,0.268,0.2611,0.3069,0.307,0.3071,0,0.2827,0.2824,0.2851,0.2809,0.2804,0.2822,0.2785,0.2792,0.279,0.2775,0.2819,0.2829,0.2931,0.2946,0.3074,0.3057,0.3101,0.3142,0.3141,0.2894,0.2836,0.259,0.2607,0.2524,0.3082,0.3081,0.308,0,0.2862,0.2888,0.2887,0.2893,0.2853,0.2847,0.2825,0.28,0.2772,0.2783,0.276,0.2855,0.2873,0.2982,0.3038,0.307,0.314,0.3182,0.3006,0.2987,0.2803,0.2761,0.2702,0.3281,0.3281,0.3281,0.3281,0,0.2915,0.2922,0.2897,0.2896,0.2879,0.2845,0.2807,0.2792,0.2757,0.2718,0.2765,0.276,0.2893,0.2929,0.3019,0.2985,0.3113,0.2998,0.2969,0.2816,0.2779,0.2681,0.2663,0.328,0.328,0.328,0.3281,0,0.2918,0.2921,0.2908,0.2884,0.2878,0.2854,0.2791,0.2754,0.2719,0.2673,0.2675,0.2696,0.2706,0.2781,0.2902,0.2895,0.2809,0.2898,0.2653,0.2593,0.2302,0.2294,0.2124,0.2095,0.268,0.2674,0.2669,0,0.2912,0.2903,0.289,0.2895,0.2882,0.2844,0.2806,0.275,0.2699,0.2627,0.2607,0.2583,0.2551,0.2555,0.2525,0.2528,0.2577,0.2345,0.2374,0.2227,0.2204,0.2193,0.2186,0.2169,0.216,0.2153,0.2147,0,0.2889,0.288,0.2865,0.2877,0.2862,0.2809,0.2752,0.2699,0.2606,0.2549,0.2457,0.2423,0.2327,0.2178,0.2104,0.2127,0.2153,0.2189,0.2152,0.1864,0.1741,0.1715,0.2215,0.2083,0.209,0.2094,0.2098,0.21,0.287,0.2859,0.2853,0.2845,0.2836,0.276,0.2654,0.258,0.246,0.2265,0.2305,0.2122,0.1933,0.1766,0.1761,0.1511,0.1677,0.1473,0.1495,0.1514,0.1412,0.1695,0.1455,0.1457,0.146,0.1462,0.1463,0,0.2835,0.2824,0.2829,0.28,0.2743,0.2736,0.2597,0.2433,0.2242,0.2084,0.1944,0.1608,0.139,0.1254,0.095,0.085,0.0941,0.0839,0.0856,0.0912,0.1251,0.1153,0.0694,0.0694,0.0694,0.0694,0.0695,0.0695,0.2823,0.2791,0.2776,0.2695,0.2661,0.2469,0.2339,0.2124,0.1941,0.1562,0.1282,0.1169,0.0943,0.0596,0.0373,0.0389,0.0446,0.0316,0.0474,0.0758,0.0824,0.0886,0.0793,0.0266,0.0266,0.0102,0.01,0.0099]},{"header":{"parameterUnit":"m.s-1","parameterCategory":2,"la1":30.2991,"la2":30.254,"lo1":-89.0895,"lo2":-89.0444,"dy":0.0017,"dx":0.0017,"nx":28,"ny":28,"refTime":"2023-08-15T03:00:00:Z","depth":"0","parameterNumber":3,"parameterNumberName":"V-component_of_CURRENTS"},"data":[0,0,0,0,0,0,0,0,0,0,0,0,0,0,0,0,0,0,0,0,0,0,0,0,0,0,0,0,0,0,0,0,0,0,0,0,0,0,0,0,0,0,0,0,0,0,0,0,0,0,0,0,0,0,0,0,0,0,0.0442,0.0442,0,0.0444,0.0444,0.0445,0.0447,0.0447,0.0447,0.0447,0.0556,0.0559,0.0562,0,0,0,0,0,0,0,0,0,0,0,0,0,0.0464,0.0464,0.0442,0.0442,0.0442,0.0444,0.0444,0.0445,0.0447,0.0447,0.0447,0.0447,0.0555,0.0559,0.0562,0,0,0,0,0,0,0,0,0,0,0,0,0,0.046,0.0463,0.0442,0.0443,0.0443,0.0444,0.0444,0.0445,0.0447,0.0447,0.0447,0.0447,0.0554,0.0558,0.0563,0.059,0,0,0.0576,0.0578,0,0,0,0,0,0,0,0,0.046,0.0459,0.0443,0.0443,0.0443,0.0445,0.0492,0.0498,0.0447,0.0446,0.0447,0.0447,0.0529,0.0535,0.0535,0.0595,0.0599,0.0576,0.0579,0.0581,0.0582,0,0,0,0,0,0,0,0.046,0.0459,0.0443,0.0443,0.0443,0.0452,0.0451,0.0493,0.049,0.0446,0.0446,0.0446,0.0529,0.053,0.0538,0.0601,0.0576,0.058,0.0583,0.0584,0.0774,0.0776,0,0,0,0,0,0,0.0458,0.0459,0.0443,0.0443,0.0451,0.0451,0.0451,0.0445,0.0487,0.0492,0.0446,0.0446,0.0523,0.0532,0.0542,0.0648,0.0581,0.0585,0.0587,0.0772,0.0775,0.0777,0,0,0,0,0,0,0.0458,0.0456,0.0443,0.0451,0.045,0.0451,0.0445,0.0445,0.0449,0.0485,0.0493,0.045,0.0523,0.0535,0.0561,0.065,0.0587,0.0591,0.0769,0.0773,0.0776,0.0816,0,0,0,0,0,0,0.0458,0.0456,0.044,0.0451,0.045,0.044,0.0445,0.0445,0.0448,0.0448,0.0492,0.0501,0.0524,0.0554,0.0565,0.0654,0.0594,0.0766,0.0771,0.0775,0.0811,0.082,0.0828,0,0,0,0,0,0.0459,0.0417,0.0439,0.0437,0.0431,0.0439,0.0439,0.0441,0.0448,0.0446,0.0464,0.05,0.0594,0.0556,0.057,0.0664,0.0764,0.0769,0.0775,0.0808,0.0818,0.0828,0,0,0,0,0,0,0.0391,0.0414,0.0438,0.04,0.0426,0.0439,0.0417,0.0443,0.0455,0.0453,0.0495,0.0505,0.0572,0.06,0.0559,0.0734,0.0701,0.0709,0.0722,0.0733,0.0741,0.0769,0.0598,0,0,0,0,0,0.038,0.037,0.0403,0.0375,0.0381,0.041,0.041,0.0428,0.0444,0.0448,0.0485,0.0539,0.0606,0.0646,0.0688,0.0764,0.0772,0.0846,0.0854,0.0861,0.0895,0.0968,0.0986,0.0795,0.0795,0.0795,0,0,0.0349,0.0356,0.0351,0.0363,0.0374,0.0394,0.0408,0.0408,0.0445,0.0462,0.0501,0.0551,0.0624,0.0708,0.0748,0.0744,0.0905,0.0868,0.0873,0.0904,0.0975,0.0994,0.101,0.0799,0.0798,0.0798,0,0,0.0287,0.0288,0.0273,0.0301,0.0327,0.0358,0.0365,0.0401,0.043,0.0468,0.0519,0.0618,0.0673,0.0785,0.0841,0.0926,0.093,0.0949,0.1037,0.1106,0.1123,0.1137,0.1102,0.1113,0.0973,0.0973,0.0973,0,0.025,0.0254,0.0268,0.0273,0.0307,0.0348,0.0375,0.0404,0.0451,0.052,0.0478,0.0675,0.073,0.092,0.0953,0.0956,0.0939,0.0987,0.1116,0.1132,0.1146,0.1107,0.1119,0.0976,0.0975,0.0975,0.0975,0,0.0205,0.0221,0.0206,0.0252,0.028,0.0303,0.037,0.0419,0.0462,0.0535,0.069,0.0761,0.0903,0.0955,0.0974,0.1158,0.1087,0.1096,0.1085,0.1167,0.112,0.1132,0.0979,0.0978,0.0978,0.0977,0,0,0.0124,0.0173,0.0177,0.0229,0.0291,0.0321,0.039,0.0513,0.0607,0.0673,0.0819,0.0969,0.1043,0.1115,0.1193,0.1279,0.1345,0.1233,0.1236,0.1186,0.1409,0.1334,0.1338,0.136,0.1364,0.1367,0.1308,0,0.011,0.0136,0.0169,0.0237,0.0281,0.0367,0.0437,0.0555,0.0655,0.0791,0.0946,0.1078,0.1094,0.1177,0.1273,0.1342,0.1389,0.1355,0.135,0.1349,0.1265,0.1357,0.1315,0.1259,0.1319,0.1321,0.1323,0,0.0089,0.0124,0.0179,0.0301,0.0326,0.0369,0.0553,0.0619,0.0823,0.0905,0.1087,0.1179,0.1373,0.1333,0.1485,0.1447,0.1435,0.1455,0.1453,0.1394,0.1301,0.1205,0.1278,0.1294,0.1341,0.1339,0.1338,0,0.0086,0.0151,0.021,0.0246,0.0362,0.0427,0.0494,0.0675,0.0775,0.099,0.1089,0.1298,0.1395,0.146,0.15,0.1489,0.1595,0.1581,0.1491,0.1479,0.1456,0.1438,0.1551,0.1662,0.1662,0.1662,0.1662,0,0.0098,0.0148,0.0213,0.0255,0.0354,0.0423,0.0562,0.0669,0.0844,0.0992,0.1144,0.1289,0.1429,0.1511,0.1522,0.1535,0.1602,0.1528,0.1498,0.1458,0.1441,0.1463,0.1486,0.166,0.166,0.1661,0.1661,0,0.0096,0.0136,0.0217,0.0323,0.0358,0.0424,0.0565,0.0676,0.0815,0.1008,0.1071,0.1287,0.1384,0.1464,0.1558,0.1546,0.1577,0.1541,0.1432,0.1392,0.1334,0.1358,0.1443,0.1497,0.1452,0.145,0.1449,0,0.0104,0.0138,0.0243,0.0296,0.0343,0.0441,0.0522,0.0659,0.0779,0.101,0.1109,0.1253,0.1384,0.146,0.1475,0.1461,0.1505,0.1383,0.1403,0.1357,0.1363,0.1379,0.1422,0.1342,0.134,0.1338,0.1337,0,0.0134,0.0158,0.0222,0.0317,0.04,0.0497,0.0613,0.0693,0.0864,0.0995,0.1165,0.1269,0.1359,0.1376,0.1351,0.1348,0.1414,0.1344,0.1378,0.1375,0.1328,0.1352,0.1272,0.1321,0.1323,0.1324,0.1325,0.1325,0.0155,0.02,0.0279,0.0364,0.0451,0.0558,0.0633,0.0744,0.0884,0.1061,0.1146,0.125,0.1281,0.1273,0.1274,0.1229,0.1301,0.1215,0.1261,0.1288,0.1345,0.1181,0.1156,0.1157,0.1157,0.1157,0.1158,0,0.0203,0.0252,0.033,0.0449,0.0528,0.0574,0.0708,0.0766,0.0885,0.1001,0.1102,0.113,0.1151,0.1166,0.1126,0.1143,0.1206,0.1165,0.1218,0.1282,0.1197,0.1197,0.1084,0.1084,0.1084,0.1084,0.1084,0.1084,0.0243,0.0317,0.0352,0.0496,0.0567,0.067,0.0735,0.0792,0.0863,0.0918,0.0937,0.0982,0.1022,0.1056,0.11,0.113,0.1256,0.12,0.131,0.1257,0.1267,0.1276,0.1284,0.1191,0.1191,0.1385,0.1387,0.1388]}],[{"header":{"parameterUnit":"m.s-1","parameterCategory":2,"la1":30.2991,"la2":30.254,"lo1":-89.0895,"lo2":-89.0444,"dy":0.0017,"dx":0.0017,"nx":28,"ny":28,"refTime":"2023-08-15T03:00:00:Z","depth":"2","parameterNumber":2,"parameterNumberName":"U-component_of_CURRENTS"},"data":[0,0,0,0,0,0,0,0,0,0,0,0,0,0,0,0,0,0,0,0,0,0,0,0,0,0,0,0,0,0,0,0,0,0,0,0,0,0,0,0,0,0,0,0,0,0,0,0,0,0,0,0,0,0,0,0,0,0,0.0567,0.0566,0,0.0675,0.0677,0.068,0.0881,0.0883,0.0885,0.0887,0.0929,0.0928,0.0927,0,0,0,0,0,0,0,0,0,0,0,0,0,0.076,0.0755,0.0567,0.0566,0.0566,0.0674,0.0677,0.0681,0.088,0.0883,0.0886,0.0888,0.0929,0.0928,0.0927,0,0,0,0,0,0,0,0,0,0,0,0,0,0.0769,0.0754,0.0567,0.0666,0.0674,0.0674,0.0678,0.0681,0.088,0.0883,0.0886,0.0889,0.093,0.0928,0.0927,0.0851,0,0,0.0922,0.0922,0,0,0,0,0,0,0,0,0.0768,0.0764,0.0651,0.0659,0.0668,0.0752,0.076,0.0729,0.0879,0.0821,0.0887,0.0891,0.0849,0.0855,0.0894,0.0853,0.0855,0.0922,0.0921,0.0921,0.092,0,0,0,0,0,0,0,0.0767,0.0761,0.0628,0.065,0.066,0.0781,0.0786,0.0758,0.0827,0.0826,0.0836,0.0819,0.0857,0.0895,0.0896,0.0855,0.0922,0.0921,0.092,0.092,0.1156,0.1163,0,0,0,0,0,0,0.07,0.0758,0.0624,0.0629,0.0707,0.0772,0.0779,0.0736,0.083,0.0842,0.0816,0.0827,0.0896,0.0898,0.0898,0.0967,0.0921,0.0919,0.0919,0.1149,0.1158,0.1166,0,0,0,0,0,0,0.0704,0.0686,0.0619,0.0685,0.0683,0.0762,0.0715,0.0736,0.0789,0.0819,0.0836,0.0846,0.0899,0.09,0.099,0.0963,0.0919,0.0918,0.1141,0.1152,0.1162,0.1003,0,0,0,0,0,0,0.0708,0.0686,0.0747,0.0678,0.0675,0.0612,0.071,0.0735,0.0763,0.0781,0.0848,0.0856,0.0902,0.0993,0.0988,0.0961,0.0916,0.1132,0.1146,0.1158,0.0999,0.1007,0.1014,0,0,0,0,0,0.0715,0.0748,0.0748,0.0737,0.0715,0.0608,0.062,0.0703,0.076,0.0769,0.0904,0.0855,0.1077,0.0995,0.0989,0.0959,0.1125,0.1142,0.1157,0.0996,0.1006,0.1014,0,0,0,0,0,0,0.0862,0.0766,0.0767,0.0772,0.0687,0.0635,0.0685,0.0688,0.0796,0.0847,0.0901,0.0919,0.1001,0.1043,0.0952,0.1105,0.1108,0.1123,0.0988,0.0997,0.1004,0.1009,0.0915,0,0,0,0,0,0.0905,0.0887,0.0782,0.0765,0.0736,0.0702,0.0709,0.0706,0.0734,0.0787,0.0854,0.0972,0.1058,0.1077,0.1168,0.1184,0.1227,0.12,0.1207,0.1211,0.1236,0.1316,0.1327,0.1218,0.1218,0.1218,0,0,0.0874,0.0886,0.0831,0.0795,0.0758,0.0729,0.072,0.067,0.0693,0.0763,0.09,0.0975,0.1086,0.1172,0.1208,0.1188,0.1267,0.1231,0.123,0.1255,0.1333,0.1342,0.1349,0.1229,0.1227,0.1226,0,0,0.0862,0.0873,0.0871,0.0794,0.0749,0.0762,0.0727,0.0683,0.0739,0.0842,0.092,0.0997,0.1154,0.119,0.1239,0.1337,0.1315,0.138,0.1362,0.1437,0.1443,0.1448,0.1467,0.1476,0.1361,0.136,0.136,0,0.0901,0.0861,0.0841,0.0825,0.0809,0.0764,0.0741,0.0756,0.0772,0.0808,0.0911,0.1149,0.1179,0.1227,0.1298,0.1325,0.1379,0.1269,0.1428,0.1435,0.1443,0.1462,0.1473,0.1355,0.1355,0.1356,0.1357,0,0.0841,0.0823,0.0791,0.0801,0.0817,0.0726,0.0728,0.0772,0.0894,0.0907,0.1033,0.1145,0.1283,0.1284,0.1325,0.1366,0.1385,0.1414,0.1349,0.144,0.146,0.1473,0.1347,0.1349,0.135,0.1352,0,0,0.08,0.078,0.074,0.0752,0.0779,0.0743,0.0836,0.0866,0.0909,0.1011,0.1114,0.1228,0.1254,0.1323,0.1321,0.136,0.1406,0.1411,0.1417,0.1332,0.1555,0.1301,0.1291,0.1455,0.1459,0.1461,0.1521,0,0.0754,0.076,0.0786,0.0749,0.0748,0.0774,0.0887,0.0918,0.1019,0.1106,0.1155,0.128,0.1267,0.1346,0.1369,0.1431,0.1451,0.1387,0.1572,0.1577,0.1256,0.1301,0.1232,0.1259,0.1534,0.1537,0.1538,0,0.0671,0.0719,0.0747,0.0788,0.0791,0.0824,0.0983,0.1057,0.1135,0.1224,0.1292,0.1336,0.138,0.1424,0.1512,0.1484,0.1526,0.156,0.1563,0.1397,0.1349,0.1242,0.1274,0.1562,0.156,0.1558,0.1557,0,0.0714,0.0645,0.0734,0.0698,0.0801,0.0865,0.0971,0.109,0.1152,0.1285,0.1345,0.1416,0.1497,0.1585,0.1599,0.1607,0.1708,0.1725,0.1518,0.1499,0.1514,0.1489,0.1816,0.1816,0.1816,0.1816,0.1816,0,0.0673,0.0673,0.0717,0.0735,0.0818,0.0912,0.1028,0.1134,0.1256,0.1321,0.1391,0.1429,0.156,0.1584,0.1636,0.1578,0.1736,0.1518,0.1503,0.1455,0.1426,0.1773,0.1768,0.1818,0.1817,0.1817,0.1817,0,0.0718,0.0714,0.0792,0.0869,0.0863,0.0965,0.1035,0.1088,0.1236,0.1339,0.1398,0.1458,0.1523,0.1551,0.1678,0.1573,0.1594,0.1535,0.1417,0.1381,0.1334,0.1322,0.1341,0.1333,0.1326,0.132,0.1315,0,0.0751,0.0823,0.0912,0.088,0.0899,0.0963,0.1018,0.1137,0.1193,0.1323,0.1378,0.1417,0.1405,0.1393,0.1321,0.1307,0.1447,0.1169,0.1137,0.1304,0.1289,0.1288,0.1286,0.112,0.1114,0.1109,0.1105,0,0.0871,0.0959,0.101,0.0977,0.0962,0.0993,0.1054,0.107,0.1253,0.1268,0.1327,0.1308,0.1227,0.1123,0.101,0.0997,0.1161,0.105,0.1347,0.1181,0.1081,0.1069,0.1079,0.106,0.1064,0.1068,0.107,0.1072,0.094,0.101,0.1069,0.101,0.1004,0.1069,0.1101,0.1112,0.1197,0.1246,0.1243,0.1151,0.1056,0.0799,0.0753,0.0692,0.0757,0.0759,0.0785,0.0813,0.0707,0.0592,0.046,0.0461,0.0462,0.0462,0.0463,0,0.0933,0.1022,0.1031,0.1014,0.1039,0.1111,0.1144,0.114,0.1184,0.1128,0.1102,0.0862,0.0718,0.0672,0.0468,0.0341,0.0444,0.0369,0.057,0.0609,0.0646,0.0543,0.0247,0.0247,0.0247,0.0246,0,0,0.0918,0.0945,0.0992,0.1034,0.1097,0.1208,0.1278,0.1205,0.1106,0.0943,0.0813,0.0732,0.0629,0.0457,0.0386,0.0315,0.0487,0.0293,0.0463,0.0744,0.0782,0.0848,0.0725,0,0,0,0,0]},{"header":{"parameterUnit":"m.s-1","parameterCategory":2,"la1":30.2991,"la2":30.254,"lo1":-89.0895,"lo2":-89.0444,"dy":0.0017,"dx":0.0017,"nx":28,"ny":28,"refTime":"2023-08-15T03:00:00:Z","depth":"2","parameterNumber":3,"parameterNumberName":"V-component_of_CURRENTS"},"data":[0,0,0,0,0,0,0,0,0,0,0,0,0,0,0,0,0,0,0,0,0,0,0,0,0,0,0,0,0,0,0,0,0,0,0,0,0,0,0,0,0,0,0,0,0,0,0,0,0,0,0,0,0,0,0,0,0,0,-0.0368,-0.0369,0,-0.0417,-0.0418,-0.0418,-0.0371,-0.0369,-0.0368,-0.0366,-0.0389,-0.0391,-0.0393,0,0,0,0,0,0,0,0,0,0,0,0,0,-0.0236,-0.0238,-0.0368,-0.0369,-0.037,-0.0417,-0.0418,-0.0418,-0.0371,-0.0369,-0.0367,-0.0365,-0.0388,-0.0391,-0.0393,0,0,0,0,0,0,0,0,0,0,0,0,0,-0.0287,-0.0239,-0.0368,-0.0354,-0.0354,-0.0417,-0.0418,-0.0418,-0.0372,-0.0369,-0.0367,-0.0364,-0.0388,-0.0391,-0.0394,-0.0462,0,0,-0.0404,-0.0405,0,0,0,0,0,0,0,0,-0.0284,-0.0292,-0.0355,-0.0355,-0.0355,-0.0388,-0.038,-0.0433,-0.0372,-0.0362,-0.0366,-0.0363,-0.039,-0.0393,-0.0404,-0.0463,-0.0464,-0.0404,-0.0406,-0.0407,-0.0408,0,0,0,0,0,0,0,-0.0281,-0.0289,-0.0384,-0.0356,-0.0356,-0.0347,-0.0351,-0.0389,-0.0386,-0.0362,-0.036,-0.0371,-0.0389,-0.0401,-0.0404,-0.0464,-0.0404,-0.0407,-0.0408,-0.041,-0.0354,-0.0351,0,0,0,0,0,0,-0.0284,-0.0286,-0.0383,-0.0386,-0.0316,-0.0351,-0.0356,-0.0377,-0.0386,-0.0386,-0.0373,-0.0369,-0.0397,-0.04,-0.0405,-0.0366,-0.0407,-0.041,-0.0412,-0.0358,-0.0354,-0.035,0,0,0,0,0,0,-0.0281,-0.0292,-0.0381,-0.0339,-0.0349,-0.0357,-0.0381,-0.038,-0.0386,-0.0395,-0.0393,-0.0379,-0.0395,-0.04,-0.0368,-0.0371,-0.0411,-0.0414,-0.0362,-0.0356,-0.0352,-0.0365,0,0,0,0,0,0,-0.0277,-0.0291,-0.0297,-0.034,-0.0352,-0.0408,-0.0383,-0.0383,-0.0398,-0.0393,-0.0401,-0.04,-0.0393,-0.0362,-0.0371,-0.0376,-0.0417,-0.0366,-0.0359,-0.0353,-0.0369,-0.0361,-0.0355,0,0,0,0,0,-0.0272,-0.0302,-0.0297,-0.0308,-0.0364,-0.0409,-0.0414,-0.0408,-0.0401,-0.0405,-0.0362,-0.04,-0.0327,-0.0363,-0.0373,-0.038,-0.0369,-0.0361,-0.0354,-0.0372,-0.0363,-0.0355,0,0,0,0,0,0,-0.0285,-0.0302,-0.0297,-0.0339,-0.0363,-0.0401,-0.0428,-0.0419,-0.0398,-0.039,-0.0379,-0.0375,-0.0335,-0.0344,-0.0384,-0.0329,-0.0348,-0.0342,-0.0358,-0.035,-0.0343,-0.0358,-0.0419,0,0,0,0,0,-0.0285,-0.0292,-0.0321,-0.0362,-0.0383,-0.0406,-0.0423,-0.0417,-0.0414,-0.0405,-0.0398,-0.0366,-0.0318,-0.0322,-0.029,-0.0302,-0.0289,-0.0296,-0.0289,-0.0284,-0.0293,-0.0231,-0.0221,-0.0325,-0.0325,-0.0325,0,0,-0.0306,-0.0319,-0.0326,-0.036,-0.0396,-0.0399,-0.0411,-0.045,-0.042,-0.0415,-0.0381,-0.035,-0.0304,-0.0268,-0.0256,-0.0284,-0.0243,-0.0274,-0.0271,-0.0283,-0.0222,-0.0213,-0.0204,-0.032,-0.0321,-0.0322,0,0,-0.0347,-0.0373,-0.0378,-0.0392,-0.0424,-0.0422,-0.0431,-0.0457,-0.0437,-0.0393,-0.0356,-0.0314,-0.028,-0.0244,-0.0216,-0.0158,-0.0191,-0.0154,-0.0169,-0.0109,-0.0101,-0.0095,-0.0071,-0.0062,-0.0173,-0.0173,-0.0173,0,-0.0374,-0.0376,-0.0393,-0.0404,-0.0409,-0.0426,-0.0428,-0.0416,-0.0407,-0.0388,-0.0364,-0.026,-0.0252,-0.0187,-0.0161,-0.0151,-0.0133,-0.0222,-0.0106,-0.0099,-0.0092,-0.0069,-0.0059,-0.0173,-0.0173,-0.0173,-0.0173,0,-0.0393,-0.0396,-0.0427,-0.0409,-0.0412,-0.044,-0.0417,-0.04,-0.0365,-0.0343,-0.0268,-0.0221,-0.0158,-0.0152,-0.0148,-0.0102,-0.011,-0.0094,-0.0148,-0.0084,-0.0062,-0.0052,-0.0172,-0.0173,-0.0173,-0.0173,0,0,-0.0469,-0.0435,-0.0447,-0.0423,-0.0415,-0.0425,-0.0376,-0.0341,-0.0297,-0.026,-0.0184,-0.0131,-0.013,-0.0096,-0.0092,-0.0075,-0.003,-0.009,-0.0086,-0.0102,0.0075,0.0101,0.0114,-0.0004,-0.0002,-0.0,0.0066,0,-0.0485,-0.0472,-0.0441,-0.0421,-0.0417,-0.0389,-0.0329,-0.029,-0.024,-0.0169,-0.0127,-0.0045,-0.0098,-0.0056,-0.0051,-0.0003,-0.0001,-0.0051,0.0047,0.005,0.0035,0.0128,0.0026,0.008,0.0076,0.0077,0.0079,0,-0.0505,-0.0484,-0.0463,-0.0392,-0.0391,-0.0367,-0.0285,-0.0222,-0.0135,-0.0085,-0.003,0.0015,0.0061,0.0033,0.0089,0.0058,0.0049,0.0062,0.0067,0.0098,0.0096,0.0023,0.0099,0.0096,0.0094,0.0093,0.0092,0,-0.0524,-0.0498,-0.0469,-0.046,-0.0383,-0.0361,-0.0304,-0.0222,-0.0147,-0.0033,0.0046,0.0099,0.0184,0.0186,0.0193,0.0151,0.0264,0.0231,0.0235,0.0235,0.0173,0.0166,0.0259,0.0259,0.0259,0.0258,0.0258,0,-0.0534,-0.0526,-0.0488,-0.0474,-0.0433,-0.0369,-0.0296,-0.0223,-0.009,0.0025,0.0076,0.0193,0.0228,0.0293,0.0251,0.0293,0.0321,0.025,0.0271,0.0169,0.0161,0.0194,0.0185,0.0261,0.026,0.026,0.0259,0,-0.0543,-0.0536,-0.0504,-0.0445,-0.0441,-0.0404,-0.0298,-0.0217,-0.0093,0.0078,0.0135,0.0289,0.0394,0.04,0.0453,0.0406,0.0425,0.0415,0.0279,0.0283,0.0325,0.0316,0.0438,0.0439,0.0441,0.0442,0.0443,0,-0.0542,-0.0523,-0.0485,-0.0492,-0.048,-0.0429,-0.0371,-0.024,-0.0112,0.0143,0.0259,0.0404,0.0526,0.061,0.0535,0.05,0.0496,0.0413,0.032,0.0344,0.0352,0.034,0.0329,0.0219,0.0219,0.0218,0.0217,0,-0.0516,-0.051,-0.0476,-0.0469,-0.0462,-0.0383,-0.0273,-0.0167,0.0058,0.0207,0.0465,0.0575,0.0623,0.0588,0.0543,0.0494,0.0415,0.0401,0.0503,0.0201,0.0148,0.0152,0.0146,0.0211,0.0212,0.0212,0.0213,0.0213,-0.0514,-0.0484,-0.0444,-0.0424,-0.042,-0.0283,-0.0155,-0.0004,0.022,0.0499,0.0576,0.0696,0.0613,0.0526,0.049,0.0408,0.0386,0.0329,0.0327,0.0326,0.0301,0.0255,0.0331,0.0332,0.0333,0.0334,0.0335,0,-0.0421,-0.0393,-0.0395,-0.0354,-0.0286,-0.0265,-0.004,0.0115,0.0388,0.051,0.0683,0.0611,0.0571,0.0496,0.0314,0.0267,0.0225,0.0299,0.0207,0.021,0.0213,0.018,0.0179,0.018,0.0181,0.0181,0,0,-0.0408,-0.0333,-0.0307,-0.021,-0.0165,0.0014,0.0188,0.0352,0.047,0.06,0.0617,0.0639,0.0518,0.0396,0.03,0.0227,0.0253,0.0235,0.0339,0.0235,0.0242,0.0182,0.013,0,0,0,0,0]}],[{"header":{"parameterUnit":"m.s-1","parameterCategory":2,"la1":30.2991,"la2":30.254,"lo1":-89.0895,"lo2":-89.0444,"dy":0.0017,"dx":0.0017,"nx":28,"ny":28,"refTime":"2023-08-15T03:00:00:Z","depth":"4","parameterNumber":2,"parameterNumberName":"U-component_of_CURRENTS"},"data":[0,0,0,0,0,0,0,0,0,0,0,0,0,0,0,0,0,0,0,0,0,0,0,0,0,0,0,0,0,0,0,0,0,0,0,0,0,0,0,0,0,0,0,0,0,0,0,0,0,0,0,0,0,0,0,0,0,0,-0.0602,-0.0603,0,-0.0688,-0.0689,-0.069,-0.0715,-0.0715,-0.0714,-0.0714,-0.0801,-0.0804,-0.0806,0,0,0,0,0,0,0,0,0,0,0,0,0,-0.0468,-0.047,-0.0602,-0.0603,-0.0604,-0.0688,-0.0689,-0.069,-0.0715,-0.0715,-0.0714,-0.0714,-0.08,-0.0803,-0.0806,0,0,0,0,0,0,0,0,0,0,0,0,0,-0.0536,-0.0471,-0.0602,-0.0628,-0.0631,-0.0688,-0.0689,-0.0691,-0.0715,-0.0715,-0.0714,-0.0714,-0.0799,-0.0803,-0.0807,-0.0842,0,0,-0.0819,-0.0821,0,0,0,0,0,0,0,0,-0.0532,-0.0541,-0.0623,-0.0626,-0.063,-0.0692,-0.0674,-0.0742,-0.0715,-0.0682,-0.0714,-0.0713,-0.0766,-0.0772,-0.0788,-0.0846,-0.0849,-0.0819,-0.0822,-0.0823,-0.0824,0,0,0,0,0,0,0,-0.0528,-0.0537,-0.0635,-0.0624,-0.0628,-0.0639,-0.0648,-0.0687,-0.0724,-0.0685,-0.0687,-0.0699,-0.0767,-0.0784,-0.079,-0.0851,-0.0819,-0.0823,-0.0825,-0.0827,-0.0813,-0.081,0,0,0,0,0,0,-0.052,-0.0533,-0.0632,-0.0637,-0.058,-0.0642,-0.0651,-0.0671,-0.0724,-0.0732,-0.0699,-0.07,-0.0777,-0.0785,-0.0793,-0.0719,-0.0823,-0.0827,-0.0829,-0.0815,-0.0812,-0.0809,0,0,0,0,0,0,-0.0517,-0.0529,-0.0628,-0.0588,-0.0601,-0.0645,-0.0666,-0.0673,-0.0701,-0.0736,-0.0743,-0.0721,-0.0777,-0.0788,-0.0828,-0.0727,-0.0829,-0.0832,-0.0818,-0.0814,-0.081,-0.0646,0,0,0,0,0,0,-0.0513,-0.0527,-0.0556,-0.0588,-0.0603,-0.0665,-0.0667,-0.0675,-0.0709,-0.0711,-0.0757,-0.0764,-0.0778,-0.0822,-0.0832,-0.0734,-0.0836,-0.0822,-0.0817,-0.0812,-0.0655,-0.0637,-0.0621,0,0,0,0,0,-0.0508,-0.055,-0.0557,-0.057,-0.0636,-0.0665,-0.0675,-0.0702,-0.0711,-0.0725,-0.075,-0.0763,-0.0793,-0.0826,-0.0837,-0.0738,-0.0824,-0.0818,-0.0812,-0.0662,-0.064,-0.0622,0,0,0,0,0,0,-0.0526,-0.0557,-0.0566,-0.0621,-0.064,-0.067,-0.0699,-0.0711,-0.0745,-0.075,-0.0776,-0.0785,-0.0758,-0.0797,-0.0831,-0.0715,-0.0792,-0.0788,-0.0673,-0.0653,-0.0637,-0.0632,-0.0839,0,0,0,0,0,-0.0538,-0.0571,-0.0593,-0.0641,-0.0647,-0.0674,-0.0697,-0.0707,-0.0735,-0.075,-0.0787,-0.079,-0.0741,-0.0744,-0.0746,-0.073,-0.0829,-0.0658,-0.0641,-0.0627,-0.063,-0.0739,-0.0733,-0.0789,-0.0789,-0.0789,0,0,-0.0562,-0.0585,-0.0607,-0.0646,-0.0665,-0.0676,-0.0686,-0.0718,-0.0704,-0.0755,-0.0779,-0.0758,-0.0729,-0.0673,-0.0661,-0.0696,-0.0658,-0.0619,-0.0606,-0.0618,-0.0732,-0.0727,-0.0723,-0.0784,-0.0785,-0.0786,0,0,-0.0597,-0.0638,-0.0655,-0.0669,-0.0692,-0.0703,-0.071,-0.0743,-0.0728,-0.0728,-0.072,-0.0676,-0.0662,-0.061,-0.0566,-0.0479,-0.057,-0.0435,-0.0344,-0.0448,-0.0446,-0.0445,-0.0551,-0.0561,-0.0421,-0.0421,-0.0421,0,-0.0621,-0.065,-0.0668,-0.0679,-0.069,-0.071,-0.0713,-0.0701,-0.0744,-0.0708,-0.0714,-0.0628,-0.0615,-0.0492,-0.041,-0.0437,-0.0522,-0.0417,-0.043,-0.0431,-0.0433,-0.0543,-0.0556,-0.0412,-0.0413,-0.0414,-0.0415,0,-0.0646,-0.0675,-0.0689,-0.0701,-0.0711,-0.0731,-0.0703,-0.0696,-0.0669,-0.0641,-0.0541,-0.0516,-0.045,-0.0391,-0.0348,-0.0291,-0.0355,-0.0404,-0.0488,-0.0418,-0.0537,-0.0554,-0.04,-0.0403,-0.0406,-0.0408,0,0,-0.067,-0.0699,-0.0703,-0.07,-0.0722,-0.0724,-0.0678,-0.0622,-0.0569,-0.0538,-0.0468,-0.0307,-0.0285,-0.0237,-0.019,-0.0233,-0.0278,-0.0288,-0.0298,-0.0404,-0.0516,-0.0376,-0.0383,-0.0335,-0.0337,-0.0338,-0.059,0,-0.0678,-0.0699,-0.0705,-0.0714,-0.0717,-0.0695,-0.0646,-0.059,-0.0526,-0.048,-0.0371,-0.0294,-0.0222,-0.0158,-0.0177,-0.0266,-0.0316,-0.0206,-0.0559,-0.0569,-0.0463,-0.0395,-0.0345,-0.0604,-0.0608,-0.0611,-0.0613,0,-0.0676,-0.0695,-0.0708,-0.0686,-0.0679,-0.0673,-0.0586,-0.054,-0.044,-0.0376,-0.0275,-0.0233,-0.018,-0.0178,-0.0302,-0.0236,-0.034,-0.0433,-0.0448,-0.039,-0.0459,-0.0691,-0.0646,-0.0643,-0.0641,-0.0639,-0.0637,0,-0.0655,-0.0677,-0.0688,-0.0695,-0.0684,-0.0636,-0.0596,-0.0498,-0.0439,-0.0324,-0.0297,-0.0232,-0.0235,-0.0334,-0.0433,-0.0382,-0.0671,-0.0658,-0.0645,-0.064,-0.0775,-0.0774,-0.0796,-0.0796,-0.0795,-0.0795,-0.0794,0,-0.0642,-0.0649,-0.0678,-0.0682,-0.0653,-0.062,-0.0546,-0.047,-0.0395,-0.0359,-0.0246,-0.0231,-0.0282,-0.0411,-0.0496,-0.0614,-0.0735,-0.0617,-0.0681,-0.0695,-0.0682,-0.0788,-0.0783,-0.0804,-0.0802,-0.08,-0.0799,0,-0.0611,-0.0643,-0.0659,-0.0655,-0.0648,-0.0613,-0.0546,-0.0493,-0.0407,-0.0376,-0.0343,-0.0297,-0.0373,-0.0476,-0.0691,-0.0702,-0.0846,-0.0883,-0.0912,-0.0979,-0.0728,-0.0713,-0.0841,-0.0838,-0.0835,-0.0833,-0.0831,0,-0.0595,-0.0608,-0.065,-0.0663,-0.0662,-0.0616,-0.0585,-0.0496,-0.047,-0.042,-0.0438,-0.0446,-0.0418,-0.0609,-0.0702,-0.0858,-0.085,-0.0957,-0.0748,-0.0676,-0.0728,-0.0716,-0.0704,-0.0826,-0.0826,-0.0825,-0.0824,0,-0.0571,-0.0604,-0.0616,-0.0662,-0.066,-0.0649,-0.0609,-0.0575,-0.0505,-0.0491,-0.0439,-0.0405,-0.0491,-0.0533,-0.0666,-0.0783,-0.0881,-0.0927,-0.093,-0.0735,-0.0661,-0.0712,-0.0703,-0.0815,-0.0816,-0.0817,-0.0818,0,-0.0554,-0.0565,-0.0613,-0.0625,-0.0658,-0.0651,-0.0616,-0.0577,-0.0526,-0.0464,-0.0487,-0.0469,-0.0498,-0.0505,-0.0659,-0.07,-0.0637,-0.0643,-0.066,-0.0671,-0.0484,-0.0356,-0.0462,0,0,0,0,0,-0.0534,-0.0536,-0.0568,-0.0578,-0.0621,-0.0641,-0.0638,-0.0609,-0.0578,-0.052,-0.0466,-0.0495,-0.0481,-0.0497,-0.0496,-0.0603,-0.0692,-0.0606,-0.0719,-0.0763,-0.0774,-0.056,0,0,0,0,0,0,-0.0516,-0.0552,-0.0554,-0.0555,-0.0553,-0.0589,-0.058,-0.0563,-0.0512,-0.0479,-0.0467,-0.047,-0.0479,-0.0463,-0.048,-0.0498,-0.0561,-0.0623,-0.0622,-0.0757,-0.0767,-0.0775,-0.0559,0,0,0,0,0]},{"header":{"parameterUnit":"m.s-1","parameterCategory":2,"la1":30.2991,"la2":30.254,"lo1":-89.0895,"lo2":-89.0444,"dy":0.0017,"dx":0.0017,"nx":28,"ny":28,"refTime":"2023-08-15T03:00:00:Z","depth":"4","parameterNumber":3,"parameterNumberName":"V-component_of_CURRENTS"},"data":[0,0,0,0,0,0,0,0,0,0,0,0,0,0,0,0,0,0,0,0,0,0,0,0,0,0,0,0,0,0,0,0,0,0,0,0,0,0,0,0,0,0,0,0,0,0,0,0,0,0,0,0,0,0,0,0,0,0,0.0187,0.0188,0,0.0217,0.0217,0.0218,0.0221,0.0221,0.0221,0.0221,0.0356,0.0359,0.0363,0,0,0,0,0,0,0,0,0,0,0,0,0,0.0076,0.0078,0.0187,0.0188,0.0188,0.0217,0.0217,0.0218,0.0221,0.0221,0.0221,0.0221,0.0354,0.0359,0.0363,0,0,0,0,0,0,0,0,0,0,0,0,0,0.0115,0.0079,0.0187,0.0195,0.0196,0.0217,0.0217,0.0218,0.0221,0.0221,0.0221,0.0221,0.0353,0.0358,0.0364,0.0402,0,0,0.0381,0.0383,0,0,0,0,0,0,0,0,0.0113,0.0119,0.0193,0.0194,0.0196,0.0217,0.0228,0.0285,0.0221,0.021,0.0221,0.0221,0.032,0.0328,0.0331,0.0409,0.0414,0.0381,0.0385,0.0387,0.0389,0,0,0,0,0,0,0,0.0111,0.0118,0.0197,0.0194,0.0195,0.0177,0.0183,0.0238,0.0266,0.0211,0.0212,0.0218,0.0321,0.0325,0.0334,0.0416,0.0381,0.0386,0.039,0.0392,0.0501,0.0501,0,0,0,0,0,0,0.0114,0.0116,0.0196,0.0198,0.0155,0.018,0.0186,0.0209,0.0264,0.0271,0.0218,0.0218,0.0316,0.0328,0.0339,0.0397,0.0387,0.0392,0.0395,0.0502,0.0501,0.0501,0,0,0,0,0,0,0.0112,0.0122,0.0195,0.0158,0.0166,0.0183,0.0208,0.021,0.0223,0.0268,0.0277,0.023,0.0316,0.0331,0.0412,0.0403,0.0395,0.04,0.0502,0.0501,0.0501,0.0509,0,0,0,0,0,0,0.0109,0.0121,0.0138,0.0159,0.0169,0.0216,0.0208,0.021,0.0227,0.0228,0.0282,0.0293,0.0317,0.0404,0.0418,0.041,0.0404,0.0503,0.0502,0.0501,0.0509,0.0509,0.0508,0,0,0,0,0,0.0105,0.0142,0.0139,0.0149,0.0192,0.0217,0.022,0.0228,0.0228,0.0238,0.0288,0.0292,0.0406,0.0411,0.0426,0.0419,0.0503,0.0502,0.0501,0.0509,0.0509,0.0508,0,0,0,0,0,0,0.0112,0.0147,0.0144,0.0191,0.0201,0.0218,0.0237,0.0236,0.0278,0.0289,0.0324,0.0341,0.0393,0.0411,0.0414,0.0441,0.044,0.0442,0.0441,0.044,0.044,0.0436,0.0409,0,0,0,0,0,0.0118,0.0152,0.017,0.0206,0.0215,0.0223,0.0235,0.0239,0.0277,0.0293,0.0351,0.0385,0.0398,0.0427,0.046,0.0507,0.0496,0.0498,0.0497,0.0497,0.0501,0.0432,0.0426,0.0497,0.0497,0.0497,0,0,0.0132,0.0155,0.0175,0.0208,0.022,0.0242,0.0231,0.0257,0.0277,0.0307,0.0389,0.0404,0.041,0.0449,0.047,0.0469,0.0482,0.0496,0.0495,0.05,0.0431,0.0423,0.0417,0.0497,0.0497,0.0497,0,0,0.016,0.0196,0.0217,0.0229,0.0248,0.0266,0.0275,0.0314,0.0331,0.0402,0.0399,0.0415,0.0497,0.0473,0.0467,0.0484,0.0481,0.0487,0.0492,0.0425,0.0418,0.0412,0.0442,0.0438,0.0487,0.0487,0.0487,0,0.0164,0.0202,0.0226,0.024,0.0264,0.028,0.0305,0.0322,0.039,0.0397,0.0436,0.0469,0.0492,0.0456,0.0467,0.0481,0.048,0.0497,0.0424,0.0417,0.041,0.0442,0.0438,0.0487,0.0487,0.0487,0.0487,0,0.0199,0.0221,0.0242,0.0273,0.0305,0.0334,0.0364,0.0399,0.044,0.0447,0.0462,0.0487,0.0495,0.0484,0.0499,0.0445,0.0475,0.043,0.0426,0.0404,0.0439,0.0435,0.0487,0.0487,0.0487,0.0487,0,0,0.0219,0.0254,0.0258,0.0269,0.0326,0.0355,0.0397,0.042,0.0416,0.0475,0.0458,0.0482,0.0483,0.0475,0.0463,0.0414,0.0397,0.0422,0.0418,0.0456,0.0325,0.0267,0.0258,0.0334,0.0332,0.033,0.0388,0,0.0228,0.0251,0.0287,0.0333,0.0352,0.039,0.0427,0.0447,0.0468,0.0467,0.0433,0.0443,0.0477,0.048,0.0434,0.0375,0.0377,0.0391,0.0338,0.0338,0.0288,0.0245,0.0324,0.0385,0.0384,0.0383,0.0383,0,0.0248,0.0258,0.0304,0.0342,0.0358,0.0431,0.0475,0.0497,0.0471,0.0473,0.0452,0.0431,0.0387,0.0411,0.0342,0.0351,0.0372,0.034,0.0339,0.0273,0.0267,0.0397,0.0374,0.0375,0.0375,0.0376,0.0376,0,0.0237,0.0275,0.032,0.0339,0.0392,0.046,0.0519,0.053,0.0513,0.0495,0.0453,0.0407,0.0368,0.0345,0.0331,0.0336,0.0244,0.0228,0.0217,0.0218,0.0255,0.026,0.0212,0.0212,0.0212,0.0212,0.0212,0,0.0239,0.0261,0.0345,0.0363,0.0444,0.0499,0.0558,0.0581,0.0554,0.0472,0.0484,0.0371,0.0341,0.0279,0.0303,0.0241,0.0237,0.0217,0.0199,0.0268,0.0273,0.0256,0.026,0.0214,0.0214,0.0213,0.0213,0,0.022,0.0258,0.0296,0.0386,0.0448,0.0523,0.0615,0.0587,0.0599,0.0481,0.0473,0.0341,0.0234,0.0239,0.0169,0.0183,0.015,0.0162,0.0301,0.0291,0.02,0.0204,0.0129,0.0127,0.0125,0.0124,0.0122,0,0.0206,0.023,0.0324,0.0378,0.046,0.057,0.0603,0.0637,0.0566,0.0412,0.0303,0.0201,0.0114,0.0025,0.0012,0.0079,0.0092,0.0148,0.0123,0.0187,0.0177,0.0185,0.0191,0.0119,0.0119,0.0118,0.0118,0,0.0172,0.0218,0.0234,0.0354,0.0448,0.0475,0.053,0.0466,0.0392,0.0383,0.0171,0.0109,-0.0032,-0.0075,0.001,0.0036,0.0121,0.0128,0.0133,0.0109,0.0174,0.0168,0.0177,0.0111,0.0112,0.0113,0.0113,0,0.0137,0.0149,0.02,0.0315,0.039,0.0378,0.04,0.0327,0.028,0.0132,0.0032,-0.006,-0.0105,-0.0104,-0.0077,-0.0019,-0.002,0.004,0.0049,0.0056,-0.0003,0.0066,-0.0057,0,0,0,0,0,0.0111,0.0121,0.0175,0.025,0.0303,0.0378,0.0323,0.0294,0.0205,0.0069,0.0076,-0.0039,-0.0081,-0.0138,-0.0091,-0.0144,-0.0023,-0.0092,0.005,0.0075,0.0082,0.0016,0,0,0,0,0,0,0.0088,0.0111,0.0138,0.0186,0.0247,0.0273,0.0243,0.0164,0.0095,0.0029,0.0012,0.0021,-0.0011,-0.0057,-0.0062,-0.0064,0.0036,-0.0095,-0.0094,0.007,0.0077,0.0083,0.0018,0,0,0,0,0]}]]